Location: Caltech
(34.1382°N, 118.1253°W)
Time: 23:47:19
(UTC-07:00)

UOSAT-12 - Visible Passes

Search period start: 24 April 2018 00:00
Search period end: 04 May 2018 00:00
Orbit: 592 x 661 km, 64.6° (Epoch: 24 April)

Date Brightness Start Highest point End Pass type
(mag) Time Alt. Az. Time Alt. Az. Time Alt. Az.
24 Apr 7.1 04:14:50 57° S 04:15:43 77° ESE 04:20:24 10° NNE visible
25 Apr 9.7 02:57:04 15° E 02:57:04 15° E 02:58:39 10° ENE visible
25 Apr 7.6 04:34:22 37° W 04:35:30 45° WNW 04:40:01 10° NNE visible
26 Apr 8.7 03:16:31 32° E 03:16:31 32° E 03:19:37 10° NE visible
26 Apr 8.7 04:53:48 18° W 04:55:30 21° NW 04:59:06 10° N visible
27 Apr 7.7 03:35:53 57° NNE 03:35:53 57° NNE 03:39:39 10° NNE visible
27 Apr 9.4 05:14:44 10° WNW 05:15:43 11° NW 05:16:42 10° NNW visible
28 Apr 10.1 02:17:55 11° ENE 02:17:55 11° ENE 02:18:16 10° ENE visible
28 Apr 8.0 03:55:13 37° NW 03:55:13 37° NW 03:59:09 10° NNE visible
29 Apr 9.4 02:37:11 22° NE 02:37:11 22° NE 02:38:57 10° NE visible
29 Apr 8.9 04:14:28 18° NW 04:14:47 19° NW 04:18:06 10° N visible
30 Apr 8.9 02:56:24 30° NNE 02:56:24 30° NNE 02:58:51 10° NNE visible
01 May 8.9 03:15:34 26° NNW 03:15:34 26° NNW 03:18:16 10° N visible
02 May 9.9 01:57:25 15° NE 01:57:25 15° NE 01:58:16 10° NE visible
02 May 9.3 03:34:41 16° NW 03:34:41 16° NW 03:37:01 10° N visible
03 May 9.6 02:16:30 20° NNE 02:16:30 20° NNE 02:18:03 10° NNE visible
